TimeCST,TemperatureF,Dew PointF,Humidity,Sea Level PressureIn,VisibilityMPH,Wind Direction,Wind SpeedMPH,Gust SpeedMPH,PrecipitationIn,Events,Conditions,WindDirDegrees,DateUTC
12:54 AM,33.1,32.0,96,30.08,1.8,SSE,6.9,-,N/A,,Overcast,150,2014-01-10 06:54:00
1:46 AM,33.1,32.0,96,30.04,0.5,SE,6.9,-,N/A,Fog,Fog,140,2014-01-10 07:46:00
1:54 AM,33.1,32.0,96,30.06,0.5,SSE,8.1,-,N/A,Fog,Fog,150,2014-01-10 07:54:00
2:54 AM,33.1,32.0,96,30.04,0.8,SE,10.4,-,N/A,,Mist,140,2014-01-10 08:54:00
3:14 AM,33.1,32.0,96,29.99,1.2,ESE,9.2,-,N/A,,Overcast,110,2014-01-10 09:14:00
3:39 AM,33.1,32.0,96,29.99,2.0,SE,9.2,-,N/A,,Overcast,130,2014-01-10 09:39:00
3:54 AM,33.1,32.0,96,30.00,3.0,SE,9.2,-,N/A,,Overcast,130,2014-01-10 09:54:00
4:54 AM,33.1,32.0,96,29.96,7.0,SE,10.4,-,N/A,,Overcast,130,2014-01-10 10:54:00
5:54 AM,33.1,32.0,96,29.95,7.0,SE,12.7,-,0.00,,Overcast,140,2014-01-10 11:54:00
6:33 AM,34.0,33.1,96,29.89,2.5,ESE,10.4,-,N/A,,Overcast,120,2014-01-10 12:33:00
6:54 AM,34.0,33.1,96,29.92,2.0,SE,10.4,-,N/A,,Overcast,140,2014-01-10 12:54:00
7:38 AM,35.1,34.0,96,29.86,1.2,SE,13.8,-,N/A,,Overcast,140,2014-01-10 13:38:00
7:49 AM,35.6,33.8,93,29.86,0.5,SE,15.0,-,N/A,Fog,Fog,140,2014-01-10 13:49:00
7:54 AM,35.1,34.0,96,29.87,0.5,SE,15.0,-,N/A,Fog,Fog,140,2014-01-10 13:54:00
8:17 AM,35.1,34.0,96,29.85,0.2,SE,12.7,-,N/A,Fog,Fog,130,2014-01-10 14:17:00
8:54 AM,36.0,35.1,97,29.86,0.2,SE,11.5,-,N/A,Fog,Fog,140,2014-01-10 14:54:00
9:03 AM,36.0,36.0,100,29.83,0.5,SE,11.5,-,0.00,Fog-Rain,Light Rain,140,2014-01-10 15:03:00
9:12 AM,36.0,36.0,100,29.83,1.8,SSE,12.7,-,0.00,,Overcast,150,2014-01-10 15:12:00
9:30 AM,37.0,36.0,96,29.82,1.0,SE,12.7,-,0.00,Thunderstorm,Overcast,140,2014-01-10 15:30:00
9:41 AM,37.0,36.0,96,29.80,1.0,SE,17.3,-,0.01,Rain-Thunderstorm,Thunderstorms and Rain,140,2014-01-10 15:41:00
9:54 AM,37.9,37.0,97,29.81,0.8,SE,16.1,-,0.04,Rain-Thunderstorm,Light Thunderstorms and Rain,140,2014-01-10 15:54:00
9:57 AM,37.9,37.0,97,29.78,0.5,SE,15.0,-,0.00,Fog-Rain,Light Rain,140,2014-01-10 15:57:00
10:06 AM,37.9,37.0,97,29.78,0.2,SE,15.0,-,0.01,Fog,Fog,140,2014-01-10 16:06:00
10:27 AM,37.9,37.9,100,29.78,0.5,SE,15.0,-,0.01,Fog,Fog,140,2014-01-10 16:27:00
10:54 AM,39.0,37.9,96,29.77,1.8,SE,12.7,-,0.01,,Overcast,140,2014-01-10 16:54:00
11:03 AM,39.9,39.0,97,29.73,2.5,SE,15.0,-,N/A,,Overcast,140,2014-01-10 17:03:00
11:13 AM,39.9,39.0,97,29.72,3.0,SE,16.1,-,N/A,,Overcast,140,2014-01-10 17:13:00
11:54 AM,39.9,39.0,97,29.71,5.0,SSE,12.7,-,N/A,Thunderstorm,Overcast,150,2014-01-10 17:54:00
12:00 PM,39.9,39.9,100,29.71,2.0,SSE,12.7,-,0.00,Rain-Thunderstorm,Thunderstorms and Rain,160,2014-01-10 18:00:00
12:26 PM,41.0,39.9,96,29.70,2.5,South,16.1,-,0.14,Rain-Thunderstorm,Light Rain,170,2014-01-10 18:26:00
12:31 PM,41.0,41.0,100,29.69,3.0,South,16.1,-,0.15,Rain,Rain,170,2014-01-10 18:31:00
12:45 PM,42.1,41.0,96,29.68,3.0,South,16.1,-,0.17,Rain,Light Rain,170,2014-01-10 18:45:00
12:54 PM,42.1,41.0,96,29.68,4.0,South,15.0,-,0.18,Rain,Light Rain,170,2014-01-10 18:54:00
1:28 PM,43.0,42.1,97,29.63,5.0,SSE,19.6,-,0.03,Rain,Light Rain,160,2014-01-10 19:28:00
1:54 PM,43.0,42.1,97,29.64,8.0,South,19.6,-,0.04,Rain,Light Rain,170,2014-01-10 19:54:00
2:15 PM,44.1,43.0,96,29.62,5.0,South,17.3,-,0.02,Rain,Light Rain,170,2014-01-10 20:15:00
2:54 PM,44.1,43.0,96,29.60,10.0,SSE,17.3,-,0.03,Rain,Light Rain,160,2014-01-10 20:54:00
3:54 PM,44.1,43.0,96,29.60,10.0,South,12.7,-,0.00,,Overcast,170,2014-01-10 21:54:00
4:54 PM,44.1,43.0,96,29.58,10.0,SSE,12.7,-,N/A,,Overcast,160,2014-01-10 22:54:00
5:54 PM,44.1,43.0,96,29.57,10.0,South,12.7,-,N/A,,Overcast,170,2014-01-10 23:54:00
6:54 PM,44.1,43.0,96,29.55,10.0,South,10.4,-,N/A,,Overcast,170,2014-01-11 00:54:00
7:16 PM,44.1,43.0,96,29.54,10.0,South,9.2,-,N/A,,Mostly Cloudy,170,2014-01-11 01:16:00
7:38 PM,44.1,43.0,96,29.55,10.0,South,9.2,-,N/A,,Overcast,180,2014-01-11 01:38:00
7:54 PM,44.1,43.0,96,29.56,10.0,South,9.2,-,N/A,,Overcast,180,2014-01-11 01:54:00
8:54 PM,45.0,44.1,97,29.55,10.0,South,11.5,-,N/A,,Overcast,180,2014-01-11 02:54:00
9:10 PM,44.1,43.0,96,29.54,10.0,South,11.5,-,N/A,,Overcast,170,2014-01-11 03:10:00
9:17 PM,44.1,43.0,96,29.57,10.0,West,16.1,20.7,N/A,,Overcast,270,2014-01-11 03:17:00
9:25 PM,45.0,43.0,93,29.56,10.0,WSW,11.5,20.7,N/A,,Overcast,240,2014-01-11 03:25:00
9:41 PM,45.0,43.0,93,29.56,10.0,SW,11.5,-,0.00,Rain,Light Rain,230,2014-01-11 03:41:00
9:49 PM,44.6,42.8,93,29.56,10.0,WNW,18.4,23.0,0.00,Rain,Light Rain,290,2014-01-11 03:49:00
9:54 PM,44.1,42.1,93,29.57,8.0,WNW,11.5,23.0,0.00,,Overcast,300,2014-01-11 03:54:00
10:01 PM,43.0,41.0,93,29.57,7.0,WNW,12.7,-,N/A,,Overcast,290,2014-01-11 04:01:00
10:27 PM,42.1,41.0,96,29.57,7.0,West,12.7,-,N/A,,Overcast,280,2014-01-11 04:27:00
10:34 PM,42.1,39.9,92,29.57,7.0,West,10.4,-,N/A,,Overcast,280,2014-01-11 04:34:00
10:54 PM,41.0,39.0,93,29.59,8.0,WNW,9.2,-,N/A,,Overcast,290,2014-01-11 04:54:00
11:21 PM,41.0,39.0,93,29.59,8.0,WNW,11.5,-,N/A,,Overcast,290,2014-01-11 05:21:00
11:35 PM,41.0,39.0,93,29.59,8.0,WNW,10.4,-,N/A,,Overcast,290,2014-01-11 05:35:00
11:54 PM,39.9,39.0,97,29.60,6.0,West,9.2,-,N/A,,Overcast,270,2014-01-11 05:54:00